Weather in Pfaffenhofen a.d.Ilm

Germany     48°31′47″N   11°30′22″E
temp.,
°C
wind,
m/s
gust,
m/s
humid.,
%
clouds,
%
prec.,
mm/h
press.,
hPa
HPBL,
m
23 april, fri
fri2323:00+3nw227021 0.0 102514
02:00+2n11755 0.0 102610
05:00+1se11800 0.0 102610
08:00+4ssw01680 0.0 1027123
11:00+10nw22534 0.0 10271000
14:00+12nnw33450 0.0 10261343
17:00+13n33420 0.0 10241445
20:00+8ne22610 0.0 102511
24 april, sat
sat2423:00+5ene12615 0.0 102710
02:00+3ne22695 0.0 102610
05:00+2ene11775 0.0 102610
08:00+5ene127024 0.0 1026117
11:00+11ne225619 0.0 1024651
14:00+14n224431 0.0 10221218
17:00+14n2244100 0.0 10211203
20:00+9nne226494 0.0 102117
25 april, sun
sun2523:00+6nnw22655 0.0 102310
02:00+3nne228227 0.0 102319
05:00+2n2286100 0.0 102321
08:00+5n23760 0.0 1024189
11:00+10nne33580 0.0 1023819
14:00+13nne33475 0.0 10211387
17:00+14nne33423 0.0 10201448
20:00+9ne2261100 0.0 102011
26 april, mon
mon2623:00+5ene3365100 0.0 102132
02:00+3e358045 0.0 102073
05:00+1e348070 0.0 102054
08:00+4e36656 0.0 1020244
11:00+10e44530 0.0 1017770
14:00+13ne32440 0.0 10151466
17:00+13ne33421 0.0 10131578
20:00+8ene34610 0.0 101350
27 april, tue
tue2723:00+4ene513653 0.0 1014252
02:00+3e615705 0.0 1012382
05:00+3e6147675 0.0 1010406
08:00+4e61375100 0.0 1009497
11:00+10e686491 0.0 1007844
14:00+14e4559100 0.0 10041241
17:00+15e336197 0.0 10021090
20:00+11ese1180100 0.2 100213